Simultaneous Nadir Overpasses (SNOs) Predictions

Prediction of SNOs between GOES-16 and METOP-C Satellite Orbit:

Table of predicted SNOs for the next 14.0 days since TLE Epoch: 10/23/2021
Index Date Time (GOES-16) GOES-16 Lat,Lon METOP-C Lat,Lon Distance(km) Time Diff (sec)
1 10/24/2021 14:31:28 0.05, -75.22 -0.03, -74.80 47.81 80
2 10/26/2021 02:50:29 -0.06, -75.20 -0.98, -79.39 477.73 80
3 10/27/2021 02:27:09 -0.06, -75.20 0.10, -74.39 91.95 80
4 10/28/2021 14:46:03 0.06, -75.23 0.88, -78.96 424.26 80
5 10/29/2021 14:28:03 0.07, -75.24 -0.20, -73.96 145.74 80
6 10/31/2021 02:47:04 -0.07, -75.23 -0.80, -78.56 378.74 80
7 11/01/2021 02:23:45 -0.07, -75.24 0.28, -73.56 191.59 80
8 11/02/2021 14:42:38 0.07, -75.28 0.71, -78.13 323.82 80
9 11/03/2021 14:24:40 0.07, -75.30 -0.43, -73.14 246.80 80
10 11/05/2021 02:43:40 -0.07, -75.30 -0.60, -77.73 276.76 80
